Regional Weather Roundup
Issued by NWS

Home | Current Version | Previous Version | Text Only | Print | Product List | Glossary Off
Versions: 1 2 3 4 5 6 7 8 9 10 11 12 13 14 15 16 17 18 19 20 21 22 23 24 25 26 27 28 29 30 31 32 33 34 35 36 37 38 39 40 41 42 43 44 45 46 47 48 49 50

000
ASUS43 KMKX 210310
RWRWI

WISCONSIN REGIONAL WEATHER ROUNDUP
NATIONAL WEATHER SERVICE MILWAUKEE/SULLIVAN WI
900 PM CST SAT JAN 20 2018

NOTE: "FAIR" INDICATES FEW OR NO CLOUDS BELOW 12,000 FEET WITH NO
SIGNIFICANT WEATHER AND/OR OBSTRUCTIONS TO VISIBILITY.

WIZ001-002-006>008-014>016-023>028-210400-
NORTHWEST WISCONSIN

CITY           SKY/WX    TMP DP  RH WIND       PRES   REMARKS
SUPERIOR ARPT  FAIR      30  27  86 SW7       29.89R WCI  24
ASHLAND        FAIR      26  25  96 S8        29.89F WCI  18
HAYWARD        FOG       23  20  88 CALM      29.89S VSB 3/4
SIREN          FAIR      26  25  96 CALM      29.90S FOG
CUMBERLAND     FAIR      32  30  93 SW3       29.89F
RICE LAKE      FAIR      31  29  94 CALM      29.92S
CHETEK         FAIR      30  28  93 CALM      29.91S
LADYSMITH      FAIR      33  30  88 CALM      29.92F
EAU CLAIRE     FAIR      29  28  96 CALM      29.92S FOG
MENOMONIE      FAIR      30  29  95 CALM      29.92S
NEW RICHMOND   CLOUDY    33  29  85 CALM      29.92S
OSCEOLA        MOCLDY    32  32 100 CALM      29.95R
$$

WIZ003>005-009-010-017-018-210400-
NORTH CENTRAL WISCONSIN

CITY           SKY/WX    TMP DP  RH WIND       PRES   REMARKS
MANITOWISH WTR FOG       23  23 100 CALM      29.89R VSB 1/2
ARBOR VITAE    FAIR      32  31  95 CALM      29.89R
WOODRUFF       FAIR      32  31  95 CALM      29.89R
RHINELANDER    FAIR      31  29  92 SW3       29.90S
EAGLE RIVER    FOG       26  26 100 CALM      29.89R VSB 1/4
LAND O LAKES   FAIR      26  25  97 CALM      29.90S FOG
PHILLIPS       FAIR      31  30  96 S3        29.89S
TOMAHAWK       FAIR      29  28  95 CALM      29.91R
MEDFORD        FAIR      29  28  94 CALM      29.91R
MERRILL        FAIR      29  29  99 CALM      29.93R
$$

WIZ029-030-035-036-043>047-210400-
CENTRAL WISCONSIN

CITY           SKY/WX    TMP DP  RH WIND       PRES   REMARKS
WAUSAU         FAIR      32  29  88 CALM      29.91R
MOSINEE        CLEAR     32  30  93 CALM      29.93R
MARSHFIELD     FAIR      32  29  88 CALM      29.91R
STEVENS POINT  FAIR      26  26 100 CALM      29.93S FOG
WAUPACA        FAIR      30  27  89 CALM      29.94S
WAUTOMA        FAIR      26  23  88 CALM      29.95R
WISC RAPIDS    FAIR      27  25  92 CALM      29.94R FOG
CAMP DOUGLAS   CLOUDY    27  27 100 CALM      29.93R
$$

WIZ011>013-019>022-031-037>040-048>050-210400-
NORTHEAST WISCONSIN

CITY           SKY/WX    TMP DP  RH WIND       PRES   REMARKS
ANTIGO         FAIR      26  26  96 CALM      29.92R
SHAWANO        FAIR      33  30  86 CALM      29.93S
OCONTO         FAIR      31  29  90 CALM      29.94R
STURGEON BAY   FAIR      34  29  82 S5        29.95F WCI  30
GREEN BAY      FAIR      31  28  89 CALM      29.94S
MANITOWOC      FAIR      29  26  89 CALM      29.94F
APPLETON       MOCLDY    34  27  75 CALM      29.91F
CLINTONVILLE   FAIR      32  28  86 CALM      29.93S
OSHKOSH        FAIR      31  28  89 S3        29.93F
$$

WIZ032>034-041-042-053>061-210400-
SOUTHWEST WISCONSIN

CITY           SKY/WX    TMP DP  RH WIND       PRES   REMARKS
LA CROSSE      FAIR      28  27  96 CALM      29.94R FOG
SPARTA         FAIR      28  27  96 CALM      29.95R
VIROQUA        FAIR      39  33  77 SE6       29.92S WCI  35
BOSCOBEL       FAIR      30  27  88 CALM      29.95S FOG
PRAIRIE DU CHI FAIR      31  28  90 CALM      29.94F
PLATTEVILLE    FAIR      34  33  97 S6        29.95R WCI  29
$$

WIZ056-057-062-063-064-067-068-210400-
SOUTH CENTRAL WISCONSIN

CITY           SKY/WX    TMP DP  RH WIND       PRES   REMARKS
REEDSBURG      FAIR      31  30  96 CALM      29.93R
BARABOO/DELLS  FAIR      32  29  87 S5        29.93R WCI  27
LONE ROCK      FAIR      29  29 100 CALM      29.95R FOG
MINERAL POINT  FAIR      37  36  93 S3        29.94R
MADISON        FAIR      30  28  92 CALM      29.95S
MIDDLETON      FAIR      33  31  95 CALM      29.94S
WATERTOWN      FAIR      28  28 100 CALM      29.94S
MONROE         FAIR      32  32 100 SW8       29.94R WCI  25
JANESVILLE     PTCLDY    32  32 100 CALM      29.95S
$$

WIZ051-052-058>065-066-070>072-210400-
SOUTHEAST WISCONSIN

CITY           SKY/WX    TMP DP  RH WIND       PRES   REMARKS
MILWAUKEE      FAIR      36  31  82 SW3       29.95F
WAUKESHA       CLEAR     34  28  80 CALM      29.95F
MILWAUKEE/TIMM CLEAR    N/A N/A N/A CALM      29.96S
RACINE         FAIR      34  31  88 SW5       29.97F WCI  30
BURLINGTON     FAIR      29  27  92 CALM      29.96S
KENOSHA        MOCLDY    34  30  85 S6        29.96S WCI  29
FOND DU LAC    FAIR      30  26  85 S3        29.94S
SHEBOYGAN      FAIR      32  30  92 CALM      29.94F
WEST BEND      FAIR      30  28  93 CALM      29.95S
JUNEAU         FAIR      34  31  87 CALM      29.95S
$$

LSZ147-162-210400-
LAKE SUPERIOR

STATION/POSITION TIME  TEMP    WIND        PRES    WAVE
                       AIR SEA DIR/SP/G            HT/PER
                 (UTC) (F)     (DEG/KT/KT) (MB)    (FT/S)
DEVILS ISLAND    0300   37     220/  8/  9 1012.5R
SAXON HARBOR     0230   37     190/  7/  9 1011.5F
$$

LMZ867-665-643>646-210400-
LAKE MICHIGAN

STATION/POSITION TIME  TEMP    WIND        PRES    WAVE
                       AIR SEA DIR/SP/G            HT/PER
                 (UTC) (F)     (DEG/KT/KT) (MB)    (FT/S)
NORTHPORT PIER   0300   32      CALM  /  5 1013.9
KEWAUNEE LAKESHO 0248   34      CALM  /  1 1013.2F
SHEBOYGAN LAKESH 0300   36        CALM     1014.4F
PORT WASHINGTON  0240   33     260/  2/  3 1015.2F
MILWAUKEE LAKESH 0250   38     230/  5/  6   N/A
KENOSHA   LAKESH 0300   38     210/  5/  7 1014.6
$$

TC  - TEMPERATURE IN CELSIUS
VSB - VISIBILITY IN STATUTE MILES
WCI - WIND CHILL INDEX
HX  - HEAT INDEX





USA.gov is the U.S. government's official web portal to all federal, state and local government web resources and services.